timestamp,wind_dir_avg,wind_spd_avg,wind_spd_max_dir,wind_spd_gust,battery_voltage,lat,long
2024-04-22 00:04:00+00:00,315.0,0.01,202.0,0.0,12.57,47.59359,-54.27349
2024-04-22 00:14:00+00:00,315.0,0.01,202.0,0.0,12.25,47.59359,-54.27349
2024-04-22 00:24:00+00:00,315.0,0.01,202.0,0.0,12.25,47.59359,-54.27349
2024-04-22 00:34:00+00:00,315.0,0.01,202.0,0.0,12.25,47.59359,-54.27349
2024-04-22 00:44:00+00:00,315.0,0.01,202.0,0.0,12.25,47.59359,-54.27349
2024-04-22 00:54:00+00:00,315.0,0.01,202.0,0.0,12.25,47.59359,-54.27349
2024-04-22 01:04:00+00:00,315.0,0.01,202.0,0.0,12.25,47.59359,-54.27349
2024-04-22 01:14:00+00:00,315.0,0.01,202.0,0.0,12.25,47.59359,-54.27349
2024-04-22 01:24:00+00:00,315.0,0.01,202.0,0.0,12.25,47.59359,-54.27349
2024-04-22 01:34:00+00:00,315.0,0.01,202.0,0.0,12.25,47.59359,-54.27349
2024-04-22 01:44:00+00:00,315.0,0.01,202.0,0.0,12.25,47.59359,-54.27349
2024-04-22 01:54:00+00:00,315.0,0.01,202.0,0.0,12.25,47.59359,-54.27349
2024-04-22 02:04:00+00:00,315.0,0.01,202.0,0.0,12.25,47.59359,-54.27349
2024-04-22 02:14:00+00:00,315.0,0.01,202.0,0.0,12.17,47.59359,-54.27349
2024-04-22 02:24:00+00:00,315.0,0.01,202.0,0.0,12.17,47.59359,-54.27349
2024-04-22 02:34:00+00:00,315.0,0.01,202.0,0.0,12.17,47.59359,-54.27349
2024-04-22 02:44:00+00:00,315.0,0.01,202.0,0.0,12.17,47.59359,-54.27349
2024-04-22 02:54:00+00:00,315.0,0.01,202.0,0.0,12.17,47.59359,-54.27349
2024-04-22 03:04:00+00:00,315.0,0.01,202.0,0.0,12.17,47.59359,-54.27349
2024-04-22 03:14:00+00:00,315.0,0.01,202.0,0.0,12.17,47.59359,-54.27349
2024-04-22 03:24:00+00:00,315.0,0.01,202.0,0.0,12.17,47.59359,-54.27349
2024-04-22 03:34:00+00:00,315.0,0.01,202.0,0.0,12.17,47.59359,-54.27349
2024-04-22 03:44:00+00:00,315.0,0.01,202.0,0.0,12.17,47.59359,-54.27349
2024-04-22 03:54:00+00:00,315.0,0.01,202.0,0.0,12.17,47.59359,-54.27349
2024-04-22 04:04:00+00:00,315.0,0.01,202.0,0.0,12.17,47.59359,-54.27349
2024-04-22 04:14:01+00:00,315.0,0.01,202.0,0.0,12.09,47.59359,-54.27349
2024-04-22 04:24:01+00:00,315.0,0.01,202.0,0.0,12.09,47.59359,-54.27349
2024-04-22 04:34:01+00:00,315.0,0.01,202.0,0.0,12.09,47.59359,-54.27349
2024-04-22 04:44:01+00:00,315.0,0.01,202.0,0.0,12.09,47.59359,-54.27349
2024-04-22 04:54:01+00:00,315.0,0.01,202.0,0.0,12.09,47.59359,-54.27349
2024-04-22 05:04:01+00:00,315.0,0.01,202.0,0.0,12.09,47.59359,-54.27349
2024-04-22 05:14:00+00:00,315.0,0.01,202.0,0.0,12.09,47.59359,-54.27349
2024-04-22 05:24:00+00:00,315.0,0.01,202.0,0.0,12.09,47.59359,-54.27349
2024-04-22 05:34:00+00:00,315.0,0.01,202.0,0.0,12.09,47.59359,-54.27349
2024-04-22 05:44:00+00:00,315.0,0.01,202.0,0.0,12.09,47.59359,-54.27349
2024-04-22 05:54:00+00:00,315.0,0.01,202.0,0.0,12.09,47.59359,-54.27349
2024-04-22 06:04:00+00:00,315.0,0.01,202.0,0.0,12.09,47.59359,-54.27349
2024-04-22 06:14:00+00:00,315.0,0.01,202.0,0.0,12.09,47.59359,-54.27349
2024-04-22 06:24:00+00:00,315.0,0.01,202.0,0.0,12.09,47.59359,-54.27349
2024-04-22 06:34:00+00:00,315.0,0.01,202.0,0.0,12.09,47.59359,-54.27349
2024-04-22 06:44:00+00:00,315.0,0.01,202.0,0.0,12.09,47.59359,-54.27349
2024-04-22 06:54:00+00:00,315.0,0.01,202.0,0.0,12.09,47.59359,-54.27349
2024-04-22 07:04:00+00:00,315.0,0.01,202.0,0.0,12.09,47.59359,-54.27349
2024-04-22 07:14:00+00:00,315.0,0.01,202.0,0.0,12.09,47.59359,-54.27349
2024-04-22 07:24:00+00:00,315.0,0.01,202.0,0.0,12.09,47.59359,-54.27349
2024-04-22 07:34:00+00:00,315.0,0.01,202.0,0.0,12.09,47.59359,-54.27349
2024-04-22 07:44:00+00:00,315.0,0.01,202.0,0.0,12.09,47.59359,-54.27349
2024-04-22 07:54:00+00:00,315.0,0.01,202.0,0.0,12.09,47.59359,-54.27349
2024-04-22 08:04:00+00:00,315.0,0.01,202.0,0.0,12.09,47.59359,-54.27349
2024-04-22 08:14:01+00:00,315.0,0.01,202.0,0.0,12.01,47.59359,-54.27349
2024-04-22 08:24:01+00:00,315.0,0.01,202.0,0.0,12.01,47.59359,-54.27349
2024-04-22 08:34:01+00:00,315.0,0.01,202.0,0.0,12.01,47.59359,-54.27349
2024-04-22 08:44:01+00:00,315.0,0.01,202.0,0.0,12.01,47.59359,-54.27349
2024-04-22 08:54:01+00:00,315.0,0.01,202.0,0.0,12.01,47.59359,-54.27349
2024-04-22 09:04:01+00:00,315.0,0.01,202.0,0.0,12.01,47.59359,-54.27349
2024-04-22 09:14:00+00:00,315.0,0.01,202.0,0.0,12.01,47.59359,-54.27349
2024-04-22 09:24:00+00:00,315.0,0.01,202.0,0.0,12.01,47.59359,-54.27349
2024-04-22 09:34:00+00:00,315.0,0.01,202.0,0.0,12.01,47.59359,-54.27349
2024-04-22 09:44:00+00:00,315.0,0.01,202.0,0.0,12.01,47.59359,-54.27349
2024-04-22 09:54:00+00:00,315.0,0.01,202.0,0.0,12.01,47.59359,-54.27349
2024-04-22 10:04:00+00:00,315.0,0.01,202.0,0.0,12.01,47.59359,-54.27349
2024-04-22 10:14:00+00:00,315.0,0.01,202.0,0.0,12.25,47.59359,-54.27349
2024-04-22 10:24:00+00:00,315.0,0.01,202.0,0.0,12.25,47.59359,-54.27349
2024-04-22 10:34:00+00:00,315.0,0.01,202.0,0.0,12.25,47.59359,-54.27349
2024-04-22 10:44:00+00:00,315.0,0.01,202.0,0.0,12.25,47.59359,-54.27349
2024-04-22 10:54:00+00:00,315.0,0.01,202.0,0.0,12.25,47.59359,-54.27349
2024-04-22 11:04:00+00:00,315.0,0.01,202.0,0.0,12.25,47.59359,-54.27349
2024-04-22 11:14:00+00:00,315.0,0.01,202.0,0.0,12.89,47.59359,-54.27349
2024-04-22 11:24:00+00:00,315.0,0.01,202.0,0.0,12.89,47.59359,-54.27349
2024-04-22 11:34:00+00:00,315.0,0.01,202.0,0.0,12.89,47.59359,-54.27349
2024-04-22 11:44:00+00:00,315.0,0.01,202.0,0.0,12.89,47.59359,-54.27349
2024-04-22 11:54:00+00:00,315.0,0.01,202.0,0.0,12.89,47.59359,-54.27349
2024-04-22 12:04:00+00:00,315.0,0.01,202.0,0.0,12.89,47.59359,-54.27349
2024-04-22 12:14:00+00:00,315.0,0.01,202.0,0.0,13.53,47.59359,-54.27349
2024-04-22 12:24:00+00:00,315.0,0.01,202.0,0.0,13.53,47.59359,-54.27349
2024-04-22 12:34:00+00:00,315.0,0.01,202.0,0.0,13.53,47.59359,-54.27349
2024-04-22 12:44:00+00:00,315.0,0.01,202.0,0.0,13.53,47.59359,-54.27349
2024-04-22 12:54:00+00:00,315.0,0.01,202.0,0.0,13.53,47.59359,-54.27349
2024-04-22 13:04:00+00:00,315.0,0.01,202.0,0.0,13.53,47.59359,-54.27349
2024-04-22 13:14:00+00:00,315.0,0.01,202.0,0.0,13.6,47.59359,-54.27349
2024-04-22 13:24:00+00:00,315.0,0.01,202.0,0.0,13.6,47.59359,-54.27349
2024-04-22 13:34:00+00:00,315.0,0.01,202.0,0.0,13.6,47.59359,-54.27349
2024-04-22 13:44:00+00:00,315.0,0.01,202.0,0.0,13.6,47.59359,-54.27349
2024-04-22 13:54:00+00:00,315.0,0.01,202.0,0.0,13.6,47.59359,-54.27349
2024-04-22 14:04:00+00:00,315.0,0.01,202.0,0.0,13.6,47.59359,-54.27349
2024-04-22 14:14:00+00:00,315.0,0.01,202.0,0.0,13.84,47.59359,-54.27349
2024-04-22 14:24:00+00:00,315.0,0.01,202.0,0.0,13.84,47.59359,-54.27349
2024-04-22 14:34:00+00:00,315.0,0.01,202.0,0.0,13.84,47.59359,-54.27349
2024-04-22 14:44:00+00:00,315.0,0.01,202.0,0.0,13.84,47.59359,-54.27349
2024-04-22 14:54:00+00:00,315.0,0.01,202.0,0.0,13.84,47.59359,-54.27349
2024-04-22 15:04:00+00:00,315.0,0.01,202.0,0.0,13.84,47.59359,-54.27349
2024-04-22 15:14:00+00:00,315.0,0.01,202.0,0.0,14.4,47.59359,-54.27349
2024-04-22 15:24:00+00:00,315.0,0.01,202.0,0.0,14.4,47.59359,-54.27349
2024-04-22 15:34:00+00:00,315.0,0.01,202.0,0.0,14.4,47.59359,-54.27349
2024-04-22 15:44:00+00:00,315.0,0.01,202.0,0.0,14.4,47.59359,-54.27349
2024-04-22 15:54:00+00:00,315.0,0.01,202.0,0.0,14.4,47.59359,-54.27349
2024-04-22 16:04:00+00:00,315.0,0.01,202.0,0.0,14.4,47.59359,-54.27349
2024-04-22 16:14:00+00:00,315.0,0.01,202.0,0.0,13.76,47.59359,-54.27349
2024-04-22 16:24:00+00:00,315.0,0.01,202.0,0.0,13.76,47.59359,-54.27349
2024-04-22 16:34:00+00:00,315.0,0.01,202.0,0.0,13.76,47.59359,-54.27349
2024-04-22 16:44:00+00:00,315.0,0.01,202.0,0.0,13.76,47.59359,-54.27349
2024-04-22 16:54:00+00:00,315.0,0.01,202.0,0.0,13.76,47.59359,-54.27349
2024-04-22 17:04:00+00:00,315.0,0.01,202.0,0.0,13.76,47.59359,-54.27349
2024-04-22 17:14:00+00:00,315.0,0.01,202.0,0.0,13.76,47.59359,-54.27349
2024-04-22 17:24:00+00:00,315.0,0.01,202.0,0.0,13.76,47.59359,-54.27349
2024-04-22 17:34:00+00:00,315.0,0.01,202.0,0.0,13.76,47.59359,-54.27349
2024-04-22 17:44:00+00:00,315.0,0.01,202.0,0.0,13.76,47.59359,-54.27349
2024-04-22 17:54:00+00:00,315.0,0.01,202.0,0.0,13.76,47.59359,-54.27349
2024-04-22 18:04:00+00:00,315.0,0.01,202.0,0.0,13.76,47.59359,-54.27349
2024-04-22 18:14:00+00:00,315.0,0.01,202.0,0.0,13.53,47.59359,-54.27349
2024-04-22 18:24:00+00:00,315.0,0.01,202.0,0.0,13.53,47.59359,-54.27349
2024-04-22 18:34:00+00:00,315.0,0.01,202.0,0.0,13.53,47.59359,-54.27349
2024-04-22 18:44:00+00:00,315.0,0.01,202.0,0.0,13.53,47.59359,-54.27349
2024-04-22 18:54:00+00:00,315.0,0.01,202.0,0.0,13.53,47.59359,-54.27349
2024-04-22 19:04:00+00:00,315.0,0.01,202.0,0.0,13.53,47.59359,-54.27349
2024-04-22 19:14:01+00:00,315.0,0.01,202.0,0.0,13.6,47.59359,-54.27349
2024-04-22 19:24:01+00:00,315.0,0.01,202.0,0.0,13.6,47.59359,-54.27349
2024-04-22 19:34:01+00:00,315.0,0.01,202.0,0.0,13.6,47.59359,-54.27349
2024-04-22 19:44:01+00:00,315.0,0.01,202.0,0.0,13.6,47.59359,-54.27349
2024-04-22 19:54:01+00:00,315.0,0.01,202.0,0.0,13.6,47.59359,-54.27349
2024-04-22 20:04:01+00:00,315.0,0.01,202.0,0.0,13.6,47.59359,-54.27349
2024-04-22 20:14:00+00:00,315.0,0.01,202.0,0.0,13.37,47.59359,-54.27349
2024-04-22 20:24:00+00:00,315.0,0.01,202.0,0.0,13.37,47.59359,-54.27349
2024-04-22 20:34:00+00:00,315.0,0.01,202.0,0.0,13.37,47.59359,-54.27349
2024-04-22 20:44:00+00:00,315.0,0.01,202.0,0.0,13.37,47.59359,-54.27349
2024-04-22 20:54:00+00:00,315.0,0.01,202.0,0.0,13.37,47.59359,-54.27349
2024-04-22 21:04:00+00:00,315.0,0.01,202.0,0.0,13.37,47.59359,-54.27349
2024-04-22 21:14:00+00:00,315.0,0.01,202.0,0.0,13.53,47.59359,-54.27349
2024-04-22 21:24:00+00:00,315.0,0.01,202.0,0.0,13.53,47.59359,-54.27349
2024-04-22 21:34:00+00:00,315.0,0.01,202.0,0.0,13.53,47.59359,-54.27349
2024-04-22 21:44:00+00:00,315.0,0.01,202.0,0.0,13.53,47.59359,-54.27349
2024-04-22 21:54:00+00:00,315.0,0.01,202.0,0.0,13.53,47.59359,-54.27349
2024-04-22 22:04:00+00:00,315.0,0.01,202.0,0.0,13.53,47.59359,-54.27349
2024-04-22 22:14:00+00:00,315.0,0.01,202.0,0.0,13.37,47.59359,-54.27349
2024-04-22 22:24:00+00:00,315.0,0.01,202.0,0.0,13.37,47.59359,-54.27349
2024-04-22 22:34:00+00:00,315.0,0.01,202.0,0.0,13.37,47.59359,-54.27349
2024-04-22 22:44:00+00:00,315.0,0.01,202.0,0.0,13.37,47.59359,-54.27349
2024-04-22 22:54:00+00:00,315.0,0.01,202.0,0.0,13.37,47.59359,-54.27349
2024-04-22 23:04:00+00:00,315.0,0.01,202.0,0.0,13.37,47.59359,-54.27349
2024-04-22 23:14:00+00:00,315.0,0.01,202.0,0.0,12.65,47.59359,-54.27349
2024-04-22 23:24:00+00:00,315.0,0.01,202.0,0.0,12.65,47.59359,-54.27349
2024-04-22 23:34:00+00:00,315.0,0.01,202.0,0.0,12.65,47.59359,-54.27349
2024-04-22 23:44:00+00:00,315.0,0.01,202.0,0.0,12.65,47.59359,-54.27349
2024-04-22 23:54:00+00:00,315.0,0.01,202.0,0.0,12.65,47.59359,-54.27349
